Погода в Хуайане

Китай     33°35′41″N   119°02′03″E
темп.,
°C
ветер,
м/с
пор.,
м/с
влажн.,
%
обл.,
%
осадки,
мм/ч
давл.,
гПа
погр.,
м
12 мая, ср
ср1223:00+16св2389100 0.0 1009200
02:00+16ссв2289100 0.0 1008129
05:00+16с2489100 0.0 1009160
08:00+19всв3381100 0.0 1010312
11:00+24вюв336444 0.0 1010973
14:00+27вюв435973 0.0 10081320
17:00+27юв3458100 0.0 10071205
20:00+21юв51078100 0.0 1009338
13 мая, чт
чт1323:00+18вюв41084100 0.0 1010323
02:00+17вюв4988100 0.0 1009310
05:00+16вюв4109312 0.0 1009264
08:00+19вюв4778100 0.0 1011417
11:00+24вюв566178 0.0 1009829
14:00+26вюв555588 0.0 10081146
17:00+26в5657100 0.0 10071201
20:00+20вюв61078100 0.0 1009376
14 мая, пт
пт1423:00+17вюв41089100 0.0 1009319
02:00+16в4894100 0.0 1008260
05:00+16в4897100 0.0 1008243
08:00+20вюв6880100 0.0 1008469
11:00+26юв6766100 0.0 10071016
14:00+25ююв6778100 1.0 1005983
17:00+21ююв4995100 3.5 1005464
20:00+20вюв3798100 3.7 1005274
15 мая, сб
сб1523:00+20вюв3898100 0.4 1005238
02:00+20юв3899100 2.0 1004232
05:00+21юв3899100 1.8 1003274
08:00+23ю3492100 3.5 1004297
11:00+26юз4679100 1.8 1003702
14:00+25ю238591 4.7 1002187
17:00+26ю5688100 2.0 1001490
20:00+23ю259645 2.6 1002124
16 мая, вс
вс1623:00+22ю129789 1.2 100247
02:00+22ююз2399100 3.9 100192
05:00+21ссв2399100 6.8 1001197
08:00+17св61097100 13.2 1003350
11:00+15ссв61195100 1.6 1004423
14:00+15ссв61096100 3.1 1005489
17:00+14с51095100 0.9 1007557
20:00+13ссз6992100 1.1 1009421